Kingshill, VI

1:54 PM AST on January 16, 2017 (GMT -0400)
Henry E Rohlsen

Weather History for TISX - April, 2014

Change the Weather History Date:

Saturday, April 5, 2014

  Actual Average Record
Temperature  
Mean Temperature 79 °F 79 °F  
Max Temperature 83 °F 85 °F 90 °F (1972)
Min Temperature 74 °F 74 °F 65 °F (2010)
Degree Days  
Heating Degree Days 0 0  
Month to date heating degree days 0 0  
Since 1 July heating degree days 0 0  
Cooling Degree Days 14 14  
Month to date cooling degree days 68 70  
Year to date cooling degree days 1350 1267  
Growing Degree Days 28 (Base 50)    
Moisture  
Dew Point 69 °F    
Average Humidity 78    
Maximum Humidity 87    
Minimum Humidity 69    
Precipitation  
Precipitation 0.21 in 0.06 in 0.90 in (1995)
Month to date precipitation 1.77 0.27  
Year to date precipitation 5.70 5.62  
Sea Level Pressure  
Sea Level Pressure 30.04 in    
Wind  
Wind Speed 11 mph (ENE)    
Max Wind Speed 22 mph    
Max Gust Speed 30 mph    
Visibility 10 miles    
Events Rain    
T = Trace of Precipitation, MM = Missing Value Source: NWS Daily Summary

Daily Weather History Graph

Daily Weather History Graph

Search for Another Location

Airport or City:

Trip Planner

Search our weather history database for the weather conditions in past years. The results will help you decide how hot, cold, wet, or windy it might be!

Date:

Astronomy

Apr. 05, 2014 Rise Set
Actual Time 6:10 AM AST 6:33 PM AST
Civil Twilight 5:48 AM AST 6:55 PM AST
Nautical Twilight 5:23 AM AST 7:20 PM AST
Astronomical Twilight 4:57 AM AST 7:46 PM AST
Moon 10:44 AM AST (4/5) 11:59 PM AST (4/5)
Length of Visible Light 13h 06m
Length of Day
12h 22m
Waxing Crescent, 34% of the Moon is Illuminated
Apr 5
Waxing Crescent
Apr 7
First Quarter
Apr 15
Full
Apr 22
Last Quarter
Apr 29
New

Hourly Weather History & Observations

Time (AST) Temp. Heat Index Dew Point Humidity Pressure Visibility Wind Dir Wind Speed Gust Speed Precip Events Conditions
12:53 AM 77.0 °F - 69.1 °F 76% 30.03 in 10.0 mi ENE 6.9 mph - N/A   Partly Cloudy
1:53 AM 77.0 °F - 69.1 °F 76% 30.02 in 10.0 mi ENE 8.1 mph - N/A   Clear
2:53 AM 75.9 °F - 70.0 °F 82% 30.01 in 10.0 mi ENE 6.9 mph - 0.00 in   Mostly Cloudy
3:53 AM 75.9 °F - 68.0 °F 76% 30.01 in 10.0 mi ENE 6.9 mph - N/A   Clear
4:53 AM 75.9 °F - 68.0 °F 76% 30.01 in 10.0 mi ENE 8.1 mph - N/A   Clear
5:53 AM 75.0 °F - 70.0 °F 84% 30.03 in 9.0 mi ENE 12.7 mph - 0.01 in Rain Light Rain
6:53 AM 75.0 °F - 69.1 °F 82% 30.04 in 10.0 mi ENE 8.1 mph - 0.00 in   Scattered Clouds
7:53 AM 77.0 °F - 71.1 °F 82% 30.06 in 10.0 mi ENE 9.2 mph - N/A   Scattered Clouds
8:53 AM 78.1 °F - 72.0 °F 81% 30.06 in 10.0 mi NE 9.2 mph - 0.12 in   Scattered Clouds
9:53 AM 82.0 °F 86.3 °F 71.1 °F 69% 30.06 in 10.0 mi ENE 18.4 mph 24.2 mph N/A   Scattered Clouds
10:53 AM 80.1 °F 82.9 °F 69.1 °F 69% 30.08 in 10.0 mi ENE 16.1 mph 28.8 mph N/A   Mostly Cloudy
11:53 AM 77.0 °F - 69.1 °F 76% 30.09 in 10.0 mi ENE 15.0 mph 20.7 mph 0.00 in   Mostly Cloudy
12:53 PM 77.0 °F - 70.0 °F 79% 30.08 in 10.0 mi NE 10.4 mph - 0.00 in   Mostly Cloudy
1:27 PM 75.2 °F - 69.8 °F 83% - 2.5 mi East 12.7 mph - 0.05 in Rain Heavy Rain
1:36 PM 75.2 °F - 71.6 °F 89% 30.07 in 4.0 mi East 10.4 mph - N/A Rain Light Rain
1:53 PM 75.0 °F - 71.1 °F 87% 30.06 in 10.0 mi ENE 6.9 mph - 0.08 in   Mostly Cloudy
2:53 PM 79.0 °F - 69.1 °F 72% 30.04 in 10.0 mi ENE 8.1 mph - N/A   Scattered Clouds
3:44 PM 80.6 °F 83.9 °F 69.8 °F 70% 30.03 in 10.0 mi NE 11.5 mph 19.6 mph N/A   Overcast
3:53 PM 80.1 °F 82.9 °F 69.1 °F 69% 30.02 in 10.0 mi ENE 13.8 mph 21.9 mph N/A   Mostly Cloudy
4:53 PM 80.1 °F 82.9 °F 69.1 °F 69% 30.01 in 10.0 mi East 17.3 mph - N/A   Mostly Cloudy
5:53 PM 79.0 °F - 69.1 °F 72% 30.01 in 10.0 mi East 17.3 mph 24.2 mph 0.00 in Rain Light Rain
6:11 PM 78.8 °F - 69.8 °F 74% 30.01 in 10.0 mi East 17.3 mph 23.0 mph 0.00 in   Overcast
6:18 PM 78.8 °F - 69.8 °F 74% 30.01 in 10.0 mi East 18.4 mph - 0.00 in   Mostly Cloudy
6:53 PM 78.1 °F - 69.1 °F 74% 30.02 in 10.0 mi East 13.8 mph 20.7 mph 0.00 in   Mostly Cloudy
7:53 PM 78.1 °F - 69.1 °F 74% 30.04 in 10.0 mi East 11.5 mph - N/A   Mostly Cloudy
8:53 PM 78.1 °F - 69.1 °F 74% 30.06 in 10.0 mi East 11.5 mph - N/A   Overcast
9:53 PM 78.1 °F - 68.0 °F 71% 30.08 in 10.0 mi East 12.7 mph - 0.00 in   Mostly Cloudy
10:53 PM 78.1 °F - 68.0 °F 71% 30.08 in 10.0 mi East 10.4 mph - N/A   Mostly Cloudy
11:53 PM 77.0 °F - 68.0 °F 74% 30.07 in 10.0 mi East 10.4 mph - N/A   Partly Cloudy